Location: Desert Center
(33.7130°N, 115.4010°W)
Time: 05:14:09
(UTC-07:00)

Daily predictions for brighter satellites

Satellite Brightness Start Highest point End
(mag) Time Altitude Azimuth Time Altitude Azimuth Time Altitude Azimuth
CZ-3 Stage 3 4.4 01:54:30 75° SW 01:56:07 81° S 03:21:22 10° ESE
Resurs 1-4 Rocket 4.4 02:08:45 10° NE 02:10:36 19° NE 02:10:36 19° NE
SL-16 R/B 3.8 02:18:25 34° ENE 02:18:25 34° ENE 02:23:23 10° N
CZ-2D R/B 4.0 02:25:57 10° NNE 02:28:34 27° NE 02:28:34 27° NE
ADEOS 4.5 03:05:28 10° NNE 03:09:06 45° NNE 03:09:06 45° NNE
Hubble Space Telescope 3.5 03:29:18 12° ESE 03:29:18 12° ESE 03:29:41 10° ESE
Cosmos 2285 Rocket 4.3 03:28:21 55° NW 03:28:21 55° NW 03:33:54 10° N
Cosmos 2173 Rocket 4.2 03:37:18 47° SSE 03:39:02 66° E 03:45:19 10° NNE
OAO 2 Rocket 4.5 03:40:48 33° ESE 03:40:48 33° ESE 03:44:09 10° E
Cosmos 1538 Rocket 4.1 03:42:01 69° NNW 03:42:01 69° NNW 03:46:52 10° NNE
Cosmos 1833 Rocket 3.8 03:42:52 30° SE 03:44:45 38° ESE 03:49:56 10° NE
USA 229 DEB 3.7 03:39:38 10° NW 03:46:46 66° WSW 03:54:00 10° SSE
USA 229 3.7 03:39:44 10° NW 03:46:53 66° WSW 03:54:07 10° SSE
Cosmos 1515 Rocket 3.9 03:50:20 61° E 03:50:20 61° E 03:54:35 10° NNE
Resurs 1-4 Rocket 3.4 03:48:30 10° NNW 03:51:41 26° NW 03:51:41 26° NW
Cosmos 2228 Rocket 3.2 03:54:30 72° NNE 03:54:30 72° NNE 03:58:31 10° N
Cosmos 1633 Rocket 4.0 03:51:45 10° N 03:54:31 38° NNW 03:54:31 38° NNW
Cosmos 1459 Rocket 3.8 03:57:49 54° SSW 03:59:20 82° W 04:05:25 10° N
Meteor 2-2 Rocket 4.2 03:59:48 59° SW 04:00:51 73° W 04:06:53 10° N
SL-16 R/B 3.7 04:03:31 25° WNW 04:03:31 25° WNW 04:06:49 10° NW
IUS-9 SRM-1 3.9 04:01:54 34° SSE 04:02:18 34° SSE 04:12:37 10° E
ARIANE 5 R/B 3.9 03:59:08 10° NNW 04:02:35 26° NW 04:02:35 26° NW
Cosmos 1455 3.5 04:06:17 30° SE 04:07:23 37° E 04:10:52 10° NNE
Cosmos 1680 Rocket 3.9 04:06:22 34° SSE 04:08:33 60° ESE 04:13:46 10° NNE
MOS 1-B 4.4 04:04:00 10° NNE 04:09:50 77° ESE 04:12:46 31° S
CZ-2D R/B 3.7 04:06:52 10° NNW 04:09:54 20° NW 04:09:54 20° NW
Cosmos 2278 4.5 04:07:23 10° N 04:12:55 53° ENE 04:18:23 10° SE
Cosmos 1328 Rocket 4.2 04:15:01 40° NW 04:15:01 40° NW 04:18:24 10° N
Cosmos 2112 Rocket 4.5 04:13:02 27° S 04:15:47 60° ESE 04:21:03 10° NNE
Abrixas 4.3 04:20:20 25° E 04:20:20 25° E 04:21:43 10° ESE
NOSS 3-1 (C) 4.0 04:12:41 10° NNW 04:20:33 81° WSW 04:29:06 10° SSE
PSLV R/B 3.9 04:23:02 10° NNE 04:27:20 63° E 04:30:01 22° S
Cosmos 2061 Rocket 4.3 04:28:52 32° SW 04:31:30 50° W 04:37:44 10° N
COSMOS 2487 2.5 04:33:41 55° W 04:33:46 55° WNW 04:37:15 10° N
Cosmos 2082 Rocket 2.1 04:31:19 32° SW 04:33:57 72° WNW 04:39:35 10° NNE
Tiangong 2 2.4 04:35:03 29° NW 04:35:29 31° NNW 04:38:24 10° NE
Cosmos 1933 Rocket 3.7 04:35:30 10° NNW 04:39:49 52° W 04:42:00 27° SSW
ADEOS II 2.1 04:34:45 10° N 04:39:57 65° WNW 04:43:08 24° SSW
Cosmos 2016 Rocket 4.1 04:38:32 25° SW 04:41:53 51° W 04:47:49 10° N
Cosmos 1151 Rocket 3.5 04:41:53 35° WSW 04:42:33 37° W 04:46:32 10° NNW
Cosmos 1869 4.2 04:38:58 10° SSE 04:42:46 48° E 04:46:37 10° NNE
Atlas 2A Centaur Rocket 4.3 04:43:59 22° SW 04:48:14 50° SSE 05:20:48 10° E
Shenzhou-11 Module 4.1 04:47:29 17° NW 04:48:39 20° NNW 04:51:04 10° NE
PSLV R/B 4.1 04:44:44 10° N 04:48:47 52° WNW 04:50:44 27° SW
Cosmos 1864 Rocket 4.5 04:44:03 13° SSW 04:49:45 67° W 04:55:57 10° N
Landsat 4 4.5 04:48:25 10° SSE 04:52:03 54° ENE 04:55:43 10° N
Meteor 1-31 Rocket 4.0 04:50:05 10° NNE 04:53:52 43° E 04:57:37 10° S
Cosmos 1892 3.0 04:50:30 10° NNW 04:54:10 45° W 04:56:54 17° SSW
Cosmos 1707 Rocket 4.0 04:50:15 10° S 04:54:36 63° E 04:58:57 10° NNE
Meteor 2-12 Rocket 4.5 04:48:53 10° S 04:54:55 82° E 05:00:59 10° N
Cosmos 1725 Rocket 4.0 04:50:34 13° SSW 04:56:06 58° W 05:02:11 10° N
CZ-4B R/B 3.1 04:50:46 10° NNE 04:56:14 89° W 05:01:34 10° SSW
Meteor 2-3 Rocket 3.8 04:51:24 10° NNW 04:56:57 57° W 05:02:31 10° S
Okean O Rocket 1.6 04:54:29 10° N 04:58:49 60° WNW 05:02:28 14° SSW
Cosmos 1825 3.3 05:00:25 10° N 05:04:06 47° E 05:07:46 10° SSE
Cosmos 1408 3.3 05:02:44 10° N 05:06:17 53° E 05:09:48 10° SSE
Hubble Space Telescope 1.5 05:04:40 22° WSW 05:06:49 38° S 05:10:39 10° ESE
Cosmos 1656 3.7 05:01:32 10° NNW 05:07:12 66° WSW 05:12:48 10° S
Cosmos 2369 3.9 05:02:34 10° NNW 05:07:58 47° WSW 05:13:20 10° S
Lacrosse 5 1.9 05:04:24 10° NW 05:09:30 89° ENE 05:14:33 10° SE
BREEZE M DEB (TANK) 4.4 05:05:34 10° WNW 05:10:25 60° SW 05:31:25 10° SE
CZ-4B R/B 3.9 05:08:47 10° NNE 05:12:31 73° E 05:16:10 10° S
PAYLOAD B 4.4 05:07:36 10° N 05:13:03 54° WNW 05:18:26 10° SSW
Aurora 2 Rocket 4.2 05:12:57 10° S 05:13:28 10° SSE 05:13:58 10° SSE
CZ-4B R/B 4.0 05:11:15 10° N 05:15:13 31° WNW 05:18:42 13° SW
GPS 2-04 Rocket1 3.5 05:13:18 14° SW 05:15:42 32° SSE 05:18:51 10° E
Kakehashi 4.1 05:13:11 14° W 05:18:11 69° S 05:29:10 10° E
OAO 2 Rocket 3.3 05:19:46 13° W 05:24:08 89° N 05:29:09 10° E
Tsikada Rocket 4.3 05:20:12 10° NNW 05:26:11 46° W 05:32:12 10° SSW
Cosmos 1371 Rocket 4.1 05:23:14 10° NNW 05:28:30 88° ENE 05:33:48 10° SSE
Cosmos 1833 Rocket 3.9 05:24:36 12° WSW 05:28:44 25° WNW 05:33:19 10° N
Cosmos 1464 Rocket 4.4 05:26:37 10° S 05:32:48 71° E 05:39:07 10° N
ATLAS 5 CENTAUR R/B 3.0 05:32:24 10° S 05:36:38 41° ESE 05:41:09 10° NE
ATLAS 2AS CENTAUR R/B 3.9 05:28:56 10° NNW 05:36:41 53° NE 05:43:46 10° SE
COSMO-SKYMED 1 3.8 05:39:24 10° SSE 05:43:33 48° ENE 05:47:43 10° N
Cosmos 1624 Rocket 4.0 05:39:10 10° NNW 05:44:26 80° WSW 05:49:37 10° SSE
Cosmos 1869 Rocket 4.3 05:41:32 10° NNW 05:45:32 33° W 05:49:31 10° SSW
NOSS 3-3 (A) 4.1 05:41:47 10° SW 05:47:47 64° WNW 05:54:18 10° NNE
NOSS 3-3 (C) 4.1 05:41:48 10° SW 05:47:48 64° WNW 05:54:17 10° NNE
